This is the latest recevied weather packets stored in our database for station/object KD6VEX-1. If no packets are shown the sender has not sent any weather packets the latest 10 day(s).
| Time | Temp. | Humidity | Pressure | Rain* | Wind** | Luminosity | Snow |
|---|---|---|---|---|---|---|---|
| 1777911901 | 15° C | 68% | 1015.4 hPa | 0 mm | - | - | - |
| 1777911602 | 14.44° C | 68% | 1015.5 hPa | 0 mm | - | - | - |
| 1777911301 | 14.44° C | 73% | 1015.5 hPa | 0 mm | - | - | - |
| 1777911002 | 13.33° C | 77% | 1015.6 hPa | 0 mm | - | - | - |
| 1777910702 | 12.78° C | 78% | 1015.6 hPa | 0 mm | - | - | - |
| 1777910401 | 12.22° C | 81% | 1015.7 hPa | 0 mm | - | - | - |
| 1777910102 | 11.67° C | 81% | 1015.7 hPa | 0 mm | - | - | - |
| 1777909801 | 11.67° C | 82% | 1015.6 hPa | 0 mm | - | - | - |
| 1777909502 | 11.11° C | 83% | 1015.6 hPa | 0 mm | - | - | - |
| 1777909201 | 11.11° C | 83% | 1015.6 hPa | 0 mm | - | - | - |
| 1777908901 | 10.56° C | 85% | 1015.6 hPa | 0 mm | - | - | - |
| 1777908601 | 10.56° C | 84% | 1015.7 hPa | 0 mm | - | - | - |
| 1777908302 | 10° C | 86% | 1015.8 hPa | 0 mm | - | - | - |
| 1777908001 | 10° C | 86% | 1015.6 hPa | 0 mm | - | - | - |
| 1777907701 | 9.44° C | 87% | 1015.7 hPa | 0 mm | - | - | - |
| 1777907401 | 8.89° C | 88% | 1015.7 hPa | 0 mm | - | - | - |
| 1777906802 | 8.33° C | 90% | 1015.7 hPa | 0 mm | - | - | - |
| 1777906501 | 8.33° C | 91% | 1015.8 hPa | 0 mm | - | - | - |
| 1777906201 | 7.78° C | 92% | 1015.7 hPa | 0 mm | - | - | - |
| 1777905902 | 7.22° C | 93% | 1015.6 hPa | 0 mm | - | - | - |
| 1777905601 | 7.22° C | 94% | 1015.7 hPa | 0 mm | - | - | - |
| 1777905302 | 6.67° C | 94% | 1015.6 hPa | 0 mm | - | - | - |
| 1777905001 | 6.67° C | 94% | 1015.6 hPa | 0 mm | - | - | - |
| 1777904702 | 6.67° C | 94% | 1015.5 hPa | 0 mm | - | - | - |
| 1777904401 | 6.11° C | 94% | 1015.5 hPa | 0 mm | - | - | - |
* Rain latest hour (hover to see other rain measurements)
** Current wind speed in m/s (hover to see current wind gust speed)